DMSP 5D-3 F16 (USA 172)

Last updated on Sat Feb 08 2025 00:02:19 GMT+0000 (Coordinated Universal Time)

1 28054U 03048A 25038.76250049 .00000328 00000+0 19567-3 0 9998 2 28054 99.0198 53.4602 0008270 105.8489 342.3411 14.14275914 99575
UTC large
Height (km)
Speed (km/s)
/
Latitude / Longitude
Inclination (degrees)
Orbital Period (minutes)
Azimuth
Elevation
Range (km)
Doppler Factor

Next 0 passes for location: London (51.5072 / 0.1276)

Sorry there are no passes over London.